This is the latest recevied weather packets stored in our database for station/object KK6LZB. If no packets are shown the sender has not sent any weather packets the latest 10 day(s).
| Time | Temp. | Humidity | Pressure | Rain* | Wind** | Luminosity | Snow |
|---|---|---|---|---|---|---|---|
| 1778094815 | 20° C | 70% | 1020.2 hPa | 0 mm | - | 721 W/m² | - |
| 1778094512 | 20° C | 73% | 1020.2 hPa | 0 mm | - | 718 W/m² | - |
| 1778094208 | 19.44° C | 73% | 1020.3 hPa | 0 mm | - | 714 W/m² | - |
| 1778093906 | 19.44° C | 72% | 1020.2 hPa | 0 mm | - | 712 W/m² | - |
| 1778093603 | 20° C | 73% | 1020.4 hPa | 0 mm | - | 707 W/m² | - |
| 1778093299 | 20° C | 72% | 1020.3 hPa | 0 mm | - | 701 W/m² | - |
| 1778092997 | 20° C | 74% | 1020.3 hPa | 0 mm | - | 699 W/m² | - |
| 1778092694 | 19.44° C | 75% | 1020.2 hPa | 0 mm | - | 694 W/m² | - |
| 1778092389 | 20° C | 73% | 1020.2 hPa | 0 mm | - | 687 W/m² | - |
| 1778092086 | 18.89° C | 74% | 1020.3 hPa | 0 mm | - | 680 W/m² | - |
| 1778091784 | 18.89° C | 75% | 1020.4 hPa | 0 mm | - | 676 W/m² | - |
| 1778091481 | 18.89° C | 75% | 1020.5 hPa | 0 mm | - | 668 W/m² | - |
| 1778091179 | 18.89° C | 75% | 1020.5 hPa | 0 mm | - | 660 W/m² | - |
| 1778090876 | 19.44° C | 74% | 1020.6 hPa | 0 mm | - | 652 W/m² | - |
| 1778090572 | 18.89° C | 75% | 1020.5 hPa | 0 mm | - | 645 W/m² | - |
| 1778090268 | 19.44° C | 74% | 1020.6 hPa | 0 mm | - | 635 W/m² | - |
| 1778089965 | 18.89° C | 77% | 1020.3 hPa | 0 mm | - | 629 W/m² | - |
| 1778089663 | 18.89° C | 76% | 1020.5 hPa | 0 mm | - | 633 W/m² | - |
| 1778089359 | 18.33° C | 77% | 1020.4 hPa | 0 mm | - | 620 W/m² | - |
| 1778089057 | 17.78° C | 77% | 1020.4 hPa | 0 mm | - | 148 W/m² | - |
| 1778088754 | 17.78° C | 78% | 1020.5 hPa | 0 mm | - | 164 W/m² | - |
| 1778088451 | 17.22° C | 79% | 1020.3 hPa | 0 mm | - | 514 W/m² | - |
| 1778088147 | 17.78° C | 78% | 1020.4 hPa | 0 mm | - | 584 W/m² | - |
| 1778087845 | 17.78° C | 77% | 1020.3 hPa | 0 mm | - | 146 W/m² | - |
| 1778087542 | 17.78° C | 78% | 1020.4 hPa | 0 mm | - | 216 W/m² | - |
* Rain latest hour (hover to see other rain measurements)
** Current wind speed in m/s (hover to see current wind gust speed)